Location: Newark
(40.8171°N, 74.0850°W)
Time: 11:25:09
(UTC+00:00)

Envisat - Pass Details

Date: 16 April 2020
Orbit: 764 x 766 km, 98.1° (Epoch: 02 June)

Event Time Altitude Azimuth Distance (km) Brightness Sun altitude
Rises 23:59:49 0° 215° (SW) 3,220 6.5 -5.1°
Reaches altitude 10° 00:03:23 10° 241° (WSW) 2,300 6.2 -5.7°
Maximum altitude 00:05:49 13° 270° (W) 2,072 6.6 -6.1°
Drops below altitude 10° 00:08:16 10° 299° (WNW) 2,309 7.2 -6.6°
Sets 00:11:52 0° 326° (NW) 3,241 7.2 -7.2°
